This is the latest recevied weather packets stored in our database for station/object W1HS. If no packets are shown the sender has not sent any weather packets the latest 10 day(s).
| Time | Temp. | Humidity | Pressure | Rain* | Wind** | Luminosity | Snow |
|---|---|---|---|---|---|---|---|
| 1778082440 | 16.11° C | 85% | 987.3 hPa | 0 mm | - | 253 W/m² | - |
| 1778081897 | 15.56° C | 84% | 987.5 hPa | 0 mm | - | 260 W/m² | - |
| 1778081677 | 15.56° C | 85% | 987.5 hPa | 0 mm | - | 241 W/m² | - |
| 1778081566 | 15.56° C | 86% | 987.5 hPa | 0 mm | - | 199 W/m² | - |
| 1778081189 | 15.56° C | 85% | 987.6 hPa | 0 mm | - | 188 W/m² | - |
| 1778080635 | 15.56° C | 83% | 987.9 hPa | 0 mm | - | 156 W/m² | - |
| 1778080162 | 16.11° C | 82% | 988.1 hPa | 0 mm | - | 133 W/m² | - |
| 1778079560 | 16.11° C | 81% | 988.1 hPa | 0 mm | - | 134 W/m² | - |
| 1778078962 | 16.11° C | 80% | 988.1 hPa | 0 mm | - | 107 W/m² | - |
| 1778078361 | 16.11° C | 80% | 988 hPa | 0 mm | - | 100 W/m² | - |
| 1778077760 | 16.11° C | 80% | 987.8 hPa | 0 mm | - | 135 W/m² | - |
| 1778077160 | 16.11° C | 80% | 987.8 hPa | 0 mm | - | 183 W/m² | - |
| 1778076558 | 16.11° C | 81% | 987.9 hPa | 0 mm | - | 190 W/m² | - |
| 1778075960 | 15.56° C | 82% | 987.8 hPa | 0 mm | - | 251 W/m² | - |
| 1778075362 | 15.56° C | 83% | 987.8 hPa | 0 mm | - | 369 W/m² | - |
| 1778074759 | 15° C | 84% | 987.9 hPa | 0 mm | - | 294 W/m² | - |
| 1778074159 | 15° C | 84% | 987.8 hPa | 0 mm | - | 253 W/m² | - |
| 1778073559 | 14.44° C | 84% | 987.9 hPa | 0 mm | - | 236 W/m² | - |
| 1778072959 | 14.44° C | 84% | 988.2 hPa | 0 mm | - | 207 W/m² | - |
| 1778072361 | 14.44° C | 84% | 988.4 hPa | 0 mm | - | 151 W/m² | - |
| 1778071762 | 14.44° C | 85% | 988.4 hPa | 0 mm | - | 163 W/m² | - |
| 1778071227 | 14.44° C | 85% | 988.6 hPa | 0 mm | - | 127 W/m² | - |
| 1778070860 | 14.44° C | 85% | 988.4 hPa | 0 mm | - | 114 W/m² | - |
| 1778070259 | 13.89° C | 85% | 988.1 hPa | 0 mm | - | 90 W/m² | - |
| 1778069659 | 13.89° C | 85% | 988 hPa | 0 mm | - | 53 W/m² | - |
* Rain latest hour (hover to see other rain measurements)
** Current wind speed in m/s (hover to see current wind gust speed)